• en Suisse
  • Liste des pays
  • À 7 jours
  • Température de l'eau
  • Carte satellitaire
  • Carte météo
  • Widgets météo
  • user-avatar
    Se connecter

    Météo par heure à Caplino

    Ce jour, 19 Août, Dimanche

    Heure Température Précipitation Vent Pression Humidité
    00:00 +18°C° 0 mm 3 m/s 757 mmHg 95%
    01:00 +17°C° 0 mm 2 m/s 757 mmHg 96%
    02:00 +17°C° 0 mm 2 m/s 757 mmHg 97%
    03:00 +16°C° 0 mm 2 m/s 757 mmHg 97%
    04:00 +16°C° 0 mm 2 m/s 756 mmHg 97%
    05:00 +16°C° 0 mm 2 m/s 756 mmHg 97%
    06:00 +17°C° 0 mm 2 m/s 756 mmHg 92%
    07:00 +18°C° 0 mm 3 m/s 756 mmHg 88%
    08:00 +20°C° 0 mm 3 m/s 756 mmHg 83%
    09:00 +21°C° 0 mm 3 m/s 756 mmHg 74%
    10:00 +22°C° 0 mm 4 m/s 756 mmHg 65%
    11:00 +23°C° 0 mm 4 m/s 756 mmHg 57%
    12:00 +23°C° 0 mm 4 m/s 755 mmHg 56%
    13:00 +23°C° 0 mm 5 m/s 755 mmHg 55%
    14:00 +23°C° 0 mm 5 m/s 755 mmHg 54%
    15:00 +23°C° 0 mm 4 m/s 755 mmHg 61%
    16:00 +22°C° 0 mm 4 m/s 755 mmHg 67%
    17:00 +21°C° 0 mm 4 m/s 755 mmHg 73%
    18:00 +20°C° 0,1 mm 4 m/s 755 mmHg 79%
    19:00 +19°C° 0,1 mm 3 m/s 755 mmHg 85%
    20:00 +18°C° 0,1 mm 3 m/s 755 mmHg 91%
    21:00 +18°C° 0 mm 3 m/s 755 mmHg 93%
    22:00 +17°C° 0 mm 3 m/s 755 mmHg 95%
    23:00 +17°C° 0 mm 3 m/s 755 mmHg 96%

    Demain, 20 Août, Lundi

    Heure Température Précipitation Vent Pression Humidité
    00:00 +17°C° 0 mm 2 m/s 755 mmHg 97%
    01:00 +16°C° 0 mm 2 m/s 755 mmHg 97%
    02:00 +16°C° 0 mm 2 m/s 755 mmHg 97%
    03:00 +16°C° 0,4 mm 2 m/s 755 mmHg 97%
    04:00 +16°C° 0,4 mm 2 m/s 755 mmHg 98%
    05:00 +16°C° 0,4 mm 2 m/s 755 mmHg 98%
    06:00 +17°C° 0,4 mm 2 m/s 754 mmHg 97%
    07:00 +17°C° 0,4 mm 3 m/s 754 mmHg 96%
    08:00 +18°C° 0,4 mm 3 m/s 754 mmHg 95%
    09:00 +18°C° 0,2 mm 4 m/s 753 mmHg 91%
    10:00 +19°C° 0,2 mm 4 m/s 753 mmHg 88%
    11:00 +20°C° 0,2 mm 5 m/s 753 mmHg 84%
    12:00 +21°C° 0,1 mm 5 m/s 752 mmHg 79%
    13:00 +22°C° 0,1 mm 5 m/s 752 mmHg 74%
    14:00 +23°C° 0,1 mm 5 m/s 751 mmHg 69%
    15:00 +23°C° 0,7 mm 4 m/s 750 mmHg 74%
    16:00 +22°C° 0,7 mm 4 m/s 749 mmHg 80%
    17:00 +22°C° 0,7 mm 4 m/s 749 mmHg 85%
    18:00 +21°C° 0,7 mm 4 m/s 748 mmHg 87%
    19:00 +20°C° 0,7 mm 4 m/s 748 mmHg 89%
    20:00 +19°C° 0,7 mm 4 m/s 747 mmHg 92%
    21:00 +18°C° 0,4 mm 4 m/s 747 mmHg 93%
    22:00 +18°C° 0,4 mm 4 m/s 746 mmHg 94%
    23:00 +17°C° 0,4 mm 5 m/s 746 mmHg 95%

    Après-demain, 21 Août, Mardi

    Heure Température Précipitation Vent Pression Humidité
    00:00 +17°C° 0,4 mm 5 m/s 746 mmHg 95%
    01:00 +17°C° 0,4 mm 5 m/s 746 mmHg 95%
    02:00 +17°C° 0,4 mm 5 m/s 746 mmHg 94%
    03:00 +16°C° 0,2 mm 5 m/s 746 mmHg 95%
    04:00 +15°C° 0,2 mm 5 m/s 747 mmHg 95%
    05:00 +14°C° 0,2 mm 4 m/s 747 mmHg 95%
    06:00 +14°C° 0,1 mm 5 m/s 748 mmHg 93%
    07:00 +14°C° 0,1 mm 6 m/s 748 mmHg 90%
    08:00 +14°C° 0,1 mm 6 m/s 749 mmHg 88%
    09:00 +15°C° 0 mm 6 m/s 749 mmHg 78%
    10:00 +17°C° 0 mm 7 m/s 750 mmHg 67%
    11:00 +18°C° 0 mm 7 m/s 751 mmHg 57%
    12:00 +18°C° 0,1 mm 7 m/s 751 mmHg 55%
    13:00 +20°C° 0,1 mm 7 m/s 751 mmHg 52%
    14:00 +20°C° 0,1 mm 7 m/s 752 mmHg 50%
    15:00 +19°C° 0,1 mm 6 m/s 752 mmHg 54%
    16:00 +19°C° 0,1 mm 6 m/s 753 mmHg 58%
    17:00 +17°C° 0,1 mm 5 m/s 753 mmHg 62%
    18:00 +16°C° 0 mm 5 m/s 754 mmHg 65%
    19:00 +14°C° 0 mm 5 m/s 754 mmHg 68%
    20:00 +13°C° 0 mm 4 m/s 755 mmHg 71%
    21:00 +13°C° 0 mm 4 m/s 755 mmHg 72%
    22:00 +12°C° 0 mm 4 m/s 756 mmHg 72%
    23:00 +12°C° 0 mm 4 m/s 756 mmHg 73%

    22 Août, Mercredi

    Heure Température Précipitation Vent Pression Humidité
    00:00 +12°C° 0 mm 4 m/s 757 mmHg 73%
    01:00 +11°C° 0 mm 4 m/s 757 mmHg 73%
    02:00 +11°C° 0 mm 4 m/s 757 mmHg 73%
    03:00 +10°C° 0 mm 4 m/s 758 mmHg 74%
    04:00 +10°C° 0 mm 4 m/s 758 mmHg 74%
    05:00 +10°C° 0 mm 4 m/s 759 mmHg 74%
    06:00 +11°C° 0 mm 4 m/s 759 mmHg 69%
    07:00 +13°C° 0 mm 4 m/s 759 mmHg 63%
    08:00 +14°C° 0 mm 4 m/s 760 mmHg 58%
    09:00 +15°C° 0 mm 4 m/s 760 mmHg 54%
    10:00 +17°C° 0 mm 4 m/s 760 mmHg 49%
    11:00 +18°C° 0 mm 4 m/s 760 mmHg 45%
    12:00 +19°C° 0 mm 3 m/s 760 mmHg 44%
    13:00 +19°C° 0 mm 3 m/s 760 mmHg 44%
    14:00 +19°C° 0 mm 3 m/s 760 mmHg 43%
    15:00 +19°C° 0 mm 3 m/s 760 mmHg 47%
    16:00 +19°C° 0 mm 3 m/s 760 mmHg 51%
    17:00 +19°C° 0 mm 2 m/s 760 mmHg 56%
    18:00 +18°C° 0 mm 2 m/s 760 mmHg 63%
    19:00 +16°C° 0 mm 3 m/s 760 mmHg 71%
    20:00 +14°C° 0 mm 3 m/s 760 mmHg 79%
    21:00 +14°C° 0 mm 3 m/s 759 mmHg 77%
    22:00 +14°C° 0 mm 4 m/s 759 mmHg 76%
    23:00 +14°C° 0 mm 4 m/s 759 mmHg 74%

    23 Août, Jeudi

    Heure Température Précipitation Vent Pression Humidité
    00:00 +13°C° 0 mm 4 m/s 759 mmHg 74%
    01:00 +13°C° 0 mm 4 m/s 759 mmHg 73%
    02:00 +13°C° 0 mm 5 m/s 759 mmHg 72%
    03:00 +13°C° 0 mm 5 m/s 758 mmHg 73%
    04:00 +13°C° 0 mm 5 m/s 758 mmHg 73%
    05:00 +13°C° 0 mm 5 m/s 758 mmHg 73%
    06:00 +14°C° 0 mm 5 m/s 758 mmHg 70%
    07:00 +15°C° 0 mm 5 m/s 757 mmHg 67%
    08:00 +16°C° 0 mm 5 m/s 757 mmHg 64%
    09:00 +19°C° 0 mm 5 m/s 757 mmHg 61%
    10:00 +20°C° 0 mm 5 m/s 757 mmHg 58%
    11:00 +22°C° 0 mm 6 m/s 756 mmHg 55%
    12:00 +23°C° 0 mm 5 m/s 756 mmHg 53%
    13:00 +25°C° 0 mm 5 m/s 756 mmHg 51%
    14:00 +26°C° 0 mm 5 m/s 756 mmHg 50%
    15:00 +25°C° 0 mm 5 m/s 756 mmHg 53%
    16:00 +25°C° 0 mm 4 m/s 756 mmHg 57%
    17:00 +25°C° 0 mm 3 m/s 755 mmHg 60%
    18:00 +22°C° 0 mm 3 m/s 755 mmHg 66%
    19:00 +20°C° 0 mm 3 m/s 755 mmHg 72%
    20:00 +19°C° 0 mm 3 m/s 755 mmHg 78%
    21:00 +18°C° 0 mm 3 m/s 756 mmHg 80%
    22:00 +18°C° 0 mm 3 m/s 756 mmHg 82%
    23:00 +17°C° 0 mm 3 m/s 756 mmHg 84%

    24 Août, Vendredi

    Heure Température Précipitation Vent Pression Humidité
    00:00 +17°C° 0 mm 3 m/s 756 mmHg 86%
    01:00 +16°C° 0 mm 3 m/s 756 mmHg 88%
    02:00 +16°C° 0 mm 3 m/s 756 mmHg 90%
    03:00 +16°C° 0 mm 3 m/s 756 mmHg 90%
    04:00 +14°C° 0 mm 3 m/s 755 mmHg 91%
    05:00 +14°C° 0 mm 3 m/s 755 mmHg 91%
    06:00 +16°C° 0 mm 3 m/s 755 mmHg 85%
    07:00 +18°C° 0 mm 3 m/s 755 mmHg 80%
    08:00 +19°C° 0 mm 4 m/s 755 mmHg 74%
    09:00 +21°C° 0 mm 4 m/s 755 mmHg 67%
    10:00 +22°C° 0 mm 4 m/s 755 mmHg 60%
    11:00 +25°C° 0 mm 5 m/s 754 mmHg 54%
    12:00 +26°C° 0 mm 5 m/s 754 mmHg 52%
    13:00 +26°C° 0 mm 5 m/s 754 mmHg 50%
    14:00 +27°C° 0 mm 5 m/s 754 mmHg 48%
    15:00 +26°C° 0 mm 5 m/s 753 mmHg 50%
    16:00 +26°C° 0 mm 4 m/s 753 mmHg 53%
    17:00 +26°C° 0 mm 4 m/s 753 mmHg 55%
    18:00 +23°C° 0 mm 4 m/s 753 mmHg 59%
    19:00 +21°C° 0 mm 4 m/s 752 mmHg 64%
    20:00 +20°C° 0 mm 4 m/s 752 mmHg 68%
    21:00 +19°C° 0 mm 4 m/s 752 mmHg 68%
    22:00 +19°C° 0 mm 4 m/s 752 mmHg 67%
    23:00 +19°C° 0 mm 5 m/s 752 mmHg 67%
    Voir plus